www.pogodaiklimat.ru

Погода и климат >> Архив погоды >> Пакистан >> Какул


ПОГОДА в Какуле

  • Прогноз погоды в Какуле
  • Монитор погоды в Какуле

АРХИВ ПОГОДЫ в Какуле

Время (UTC), дата Ветер
(напр.,м/с)
 
Видим.   Явления Облачность Т
(С)
Тd
(С)
f
(%)
Тe
(С)
Тes
(С)
Комфортность P
(гПа)
Po
(гПа)
Тmin
(С)
Tmax
(С)
R
(мм)
R24
(мм)
S
(см)
00 16.07 штиль 0 4000 м 10/6 1050 м
[Sc As op]
+20.5 +19.0 91 +24 +24 комфорт 1000.0
03 16.07 штиль 0 10 км 3/0
[Ac trans]
+22.0 +19.8 87 +28 +36 душно 1000.0 +20.1
06 16.07 ЮВ 1 10 км 3/0
[Ac trans]
+27.0 +20.2 66 +33 +53 опасность
солнечного
удара
1000.0
09 16.07 ЮВ 1 10 км 9/3 300 м
[Sc As op]
+27.0 +21.2 71 +34 +39 очень
душно
1000.0
12 16.07 ЮВ 1 10 км 9/6 1050 м
[Sc As op]
+27.0 +21.2 71 +34 +35 очень
душно
1000.0 +28.1
15 16.07 ЮЗ 1 4000 м 9/6 1050 м
[Sc As op]
+25.5 +20.4 73 +31 +31 очень
душно
1000.0
18 16.07 штиль 0 4000 м 6/3 300 м
[Sc As op]
+23.0 +19.3 80 +29 +29 очень
душно
724.1
21 16.07 штиль 0 4000 м 5/4 1050 м
[Sc As op]
+21.5 +18.5 83 +26 +26 душно 1000.0
00 17.07 штиль 0 4000 м 6/3 300 м
[Sc As op]
+20.0 +17.7 87 +23 +23 комфорт 1000.0
03 17.07 штиль 0 10 км 9/5 1050 м
[Sc As op]
+23.0 +20.8 87 +30 +32 очень
душно
1000.0 +19.5
06 17.07 ЮВ 1 10 км 10/6 300 м
[Sc As op]
+25.0 +21.4 80 +32 +34 очень
душно
725.0
09 17.07 ЮВ 1 10 км 9/4 1050 м
[Sc As op]
+26.5 +21.5 74 +34 +38 очень
душно
725.1
12 17.07 ЮВ 1 10 км 10/6 1050 м
[Sc As op]
+26.5 +21.5 74 +34 +34 очень
душно
1000.0 +28.1
15 17.07 штиль 0 4000 м 10/6 1050 м
[Sc As op]
+25.0 +21.4 80 +32 +32 очень
душно
1000.0
18 17.07 штиль 0 4000 м 9/5 1050 м
[Sc As op]
+24.0 +21.1 84 +30 +30 очень
душно
723.9
21 17.07 штиль 0 4000 м 9/5 1050 м
[Sc As op]
+23.0 +20.0 83 +30 +30 очень
душно
1000.0
00 18.07 штиль 0 4000 м 9/5 1050 м
[Sc As op]
+21.5 +19.2 87 +26 +26 душно 1000.0
03 18.07 штиль 0 10 км 10/5 1050 м
[Sc As op]
+23.0 +20.8 87 +30 +31 очень
душно
1000.0 +21.1
06 18.07 СВ 1 10 км гроза, ливневой дождь 10/8 600 м
[Cb cap As op]
+20.5 +19.0 91 +26 +26 душно 726.0 11
09 18.07 СВ 1 10 км в посл. час дождь {морось} 9/5 1050 м
[Sc Ac As]
+21.0 +19.5 91 +27 +31 душно 1000.0 6
12 18.07 штиль 0 10 км 9/5 1050 м
[Sc Ac As]
+23.0 +21.5 91 +31 +32 очень
душно
1000.0 +24.1 17
15 18.07 штиль 0 4000 м ясно +22.0 +19.8 87 +28 +28 душно 724.3
18 18.07 штиль 0 4000 м 6/0
[Ac As]
+22.0 +20.5 91 +28 +28 душно 1000.0 17
21 18.07 штиль 0 4000 м 6/0
[Ac As]
+20.0 +18.5 91 +23 +23 комфорт 723.5
00 19.07 штиль 0 4000 м 6/0
[Ac As]
+20.0 +18.5 91 +23 +23 комфорт 722.6 17
03 19.07 штиль 0 10 км ясно +21.0 +17.9 82 +25 +34 комфорт 1000.0 +17.5
06 19.07 СВ 1 10 км ясно +28.0 +19.9 61 +34 +57 опасность
солнечного
удара
728.2
09 19.07 10 км н/о +29.5 +21.6 63 +38 +44 очень
душно
1000.0
12 19.07 10 км н/о +28.5 +22.1 68 +37 +38 очень
душно
1000.0 +30.5
15 19.07 ЮВ 1 4000 м гроза, ливневой дождь 9/8 600 м
[Cb cap As op]
+21.5 +19.2 87 +26 +26 душно 1000.0 6
18 19.07 штиль 0 4000 м {гроза, дождь} 6/0
[Ac As]
+21.0 +18.7 87 +25 +25 комфорт 724.2 7
21 19.07 штиль 0 4000 м 6/0
[Ac As]
+20.0 +17.2 84 +23 +23 комфорт 724.2
00 20.07 штиль 0 4000 м ясно +18.5 +16.9 90 +19 +19 1000.0 7
03 20.07 штиль 0 10 км ясно +21.0 +16.3 75 +24 +34 комфорт 725.3 +17.0
06 20.07 штиль 0 10 км ясно +28.0 +19.1 58 +33 +60 опасность
солнечного
удара
1000.0
09 20.07 10 км н/о +31.0 +17.5 44 +35 +41 очень
душно
1000.0
12 20.07 штиль 0 10 км ясно +30.0 +19.8 54 +36 +41 очень
душно
1000.0 +31.5
18 20.07 штиль 0 4000 м ясно +24.0 +20.3 80 +30 +30 очень
душно
1000.0
21 20.07 штиль 0 4000 м ясно +22.0 +19.0 83 +27 +27 душно 1000.0
00 21.07 штиль 0 4000 м ясно +18.5 +16.9 90 +19 +19 722.8
03 21.07 штиль 0 10 км ясно +23.0 +19.3 80 +29 +39 очень
душно
725.6 +17.0
06 21.07 10 км н/о +29.5 +20.0 57 +36 +46 очень
душно
729.4
09 21.07 СВ 2 10 км гроза, ливневой дождь 9/8 600 м
[Cb cap As op]
+25.0 +22.1 84 +32 +35 очень
душно
1000.0 2
12 21.07 штиль 0 10 км {гроза, дождь} 4/4 1050 м
[Sc]
+27.0 +22.0 74 +35 +38 очень
душно
1000.0 +31.5 6
15 21.07 штиль 0 4000 м в посл. час дождь 9/5 1050 м
[Sc Ac As]
+22.0 +19.0 83 +27 +27 душно 1000.0 2
18 21.07 штиль 0 4000 м {дождь} ясно +20.5 +18.5 88 +24 +24 комфорт 1000.0 8
21 21.07 штиль 0 4000 м ясно +19.0 +17.4 90 +20 +20 1000.0
00 22.07 штиль 0 4000 м ясно +18.0 +16.4 90 +18 +18 722.2 8
03 22.07 СВ 2 10 км слаб. морось {гроза, дождь} 9/6 600 м
[Cb cap Ac As]
+21.0 +19.5 91 +26 +28 душно 724.4 +17.5 21
06 22.07 ЮЗ 1 10 км {морось} 5/5 1050 м
[Sc]
+23.5 +22.1 92 +30 +43 очень
душно
1000.0 0.0
09 22.07 СВ 1 10 км слаб. морось {гроза, дождь} 9/8 1050 м
[Sc Ac As]
+26.5 +24.4 88 +37 +40 очень
душно
726.3 2
12 22.07 10 км {морось} н/о +28.0 +20.3 63 +34 +36 очень
душно
1000.0 +28.5 2
15 22.07 штиль 0 4000 м н/о +25.0 +21.6 81 +32 +32 очень
душно
1000.0
18 22.07 штиль 0 4000 м 6/6 1050 м
[Sc]
+24.5 +22.4 88 +32 +32 очень
душно
1000.0 2
21 22.07 4000 м н/о +23.5 +22.1 92 +30 +30 очень
душно
1000.0

 

Местоположение метеостанции Какул (Пакистан): широта 34.18 долгота 73.25 высота над уровнем моря 1309 м.

В архиве по умолчанию представлена погода в Какуле за последнюю неделю. Архивные данные за месяц целиком и за предыдущие месяцы, начиная с января 2011 года, Вы можете получить, выбрав интересующий диапазон дат из раскрывающегося списка и нажав кнопку "Ввод!".


*Определитесь, кто Вы:
робот инопланетянин человек

Внимание! Время в таблицах - всемирное. Для получения местного времени необходимо прибавить поправку, которая равна 5 ч.

Смотрите также архив погоды в соседних городах и на ближайших метеорологических станциях:

Погода в Балакоре (Пакистан) (24 км)
Погода в Мерри (Пакистан) (31 км)
Погода в Исламабад Сити (Пакистан) (53 км)
Погода в Равалакоте (Пакистан) (63 км)
Погода в Исламабаде (Пакистан) (64 км)
Погода в Малам Джабба (Пакистан) (71 км)
Погода в Купваре (Джамму и Кашмир, Индия) (100 км)
Погода в Сайду-Шарифе (Пакистан) (103 км)
Погода в Паттане (Пакистан) (105 км)
Погода в Гульмарге (Джамму и Кашмир, Индия) (107 км)

Пояснения к столбцам:

Ветер - указаны скорость ветра в м/с - средняя за 10 мин, порывы в срок и между сроками (в фигурных скобках) и направление, откуда дует ветер: С - северный, СВ - северо-восточный, В - восточный, ЮВ - юго-восточный, Ю - южный, ЮЗ - юго-западный, З - западный, СЗ - северо-западный.
Видимость - горизонтальная дальность видимости в метрах или километрах. При видимости от 1 до 10 км при отсутствии осадков обычно наблюдается дымка, при ухудшении видимости до 1 км и менее - туман. В сухую погоду видимость может ухудшаться дымом, пылью или мглою.
Явления - указаны атмосферные явления, наблюдавшиеся в срок или в последний час перед сроком; фигурными скобками обозначены явления, наблюдавшиеся между сроками (за 1-3 часа до срока); квадратными скобками обозначены град или гололедные отложения с указанием их диаметра в мм.
Облачность - указаны через наклонную черту общая и нижняя облачность в баллах и высота нижней границы облаков в метрах; квадратными скобками обозначены формы облаков: Ci - перистые, Cs - перисто-слоистые, Cc - перисто-кучевые, Ac - высококучевые, As - высокослоистые, Sc - слоисто-кучевые, Ns - слоисто-дождевые, Cu - кучевые, Cb - кучево-дождевые. Подробнее классификацию облаков см. в Атласе облаков (PDF).
T - Температура воздуха - температура, измеренная на высоте 2 м над землей.
Td - Температура точки росы - температура, при понижении до которой содержащийся в воздухе водяной пар достигнет насыщения.
f - Относительная влажность воздуха - влажноcть воздуха, измеренная на высоте 2 м над землей.
Te - Эффективная температура - температура, которую ощущает одетый по сезону человек в тени. Характеристика душности погоды. При расчете учитывается влияние влажности воздуха и скорости ветра на теплоощущения человека.
Tes - Эффективная температура на солнце - температура, которую ощущает человек, с поправкой на солнечный нагрев. Характеристика знойности погоды. Зависит от высоты солнца над горизонтом, облачности и скорости ветра. Ночью, в пасмурную погоду, а также при ветре 12 м/с и более поправка равна нулю.
P - Атмосферное давление - приведенное к уровню моря атмосферное давление.
Po - Атмосферное давление - измеренное на уровне метеостанции атмосферное давление.
Tmin - Минимальная температура - минимум температуры воздуха на высоте 2 м над землей.
Tmax - Максимальная температура - максимум температуры воздуха на высоте 2 м над землей.
R - Количество осадков - Количество выпавших осадков за период времени, мм. При наведении курсора мыши на число - период времени, за который выпало указанное количество осадков.
R24 - Количество осадков - Количество выпавших осадков за 24 часа, мм.
S - Снежный покров - Высота снежного покрова, см. При наведении курсора мыши на число - состояние снежного покрова и степень покрытия местности в баллах.